Weather History for Calgary Springbank, AB

Change the Weather History Date:

Saturday, June 15, 2013

  Actual Average Record
Temperature  
Mean Temperature 53 °F -  
Max Temperature 65 °F 66 °F 75 °F (2002)
Min Temperature 41 °F 42 °F 33 °F (2008)
Degree Days  
Heating Degree Days 12    
Growing Degree Days 3 (Base 50)    
Moisture  
Dew Point 44 °F    
Average Humidity 67    
Maximum Humidity 100    
Minimum Humidity 45    
Precipitation  
Precipitation 0.24 in - - ()
Sea Level Pressure  
Sea Level Pressure 30.03 in    
Wind  
Wind Speed 8 mph ()    
Max Wind Speed 28 mph    
Max Gust Speed 39 mph    
Visibility 19.9 miles    
Events Rain , Thunderstorm    
Averages and records for this station are not official NWS values.
T = Trace of Precipitation, MM = Missing Value Source: Averaged Metar Reports

Daily Weather History Graph

Daily Weather History Graph

Search for Another Location

Airport:

Trip Planner

Search our weather history database for the weather conditions in past years. The results will help you decide how hot, cold, wet, or windy it might be!

Date:

Astronomy

Jun. 15, 2013 Rise Set
Actual Time 5:21 AM MDT 9:54 PM MDT
Civil Twilight 4:35 AM MDT 10:41 PM MDT
Nautical Twilight 3:24 AM MDT 11:52 PM MDT
Astronomical Twilight 2:10 AM MDT 1:05 AM MDT
Moon 12:43 PM MDT (6/15) 12:52 AM MDT (6/15)
Length of Visible Light 18h 05m
Length of Day
16h 32m
Waxing Crescent, 40% of the Moon is Illuminated
Jun 15
Waxing Crescent
Jun 16
First Quarter
Jun 23
Full
Jun 29
Last Quarter
Jul 8
New

Hourly Weather History & Observations

Time (MDT) Temp. Windchill Dew Point Humidity Pressure Visibility Wind Dir Wind Speed Gust Speed Precip Events Conditions
5:00 AM 42.8 °F 40.1 °F 42.8 °F 100% 30.01 in 30.0 mi WNW 4.6 mph - N/A   Mostly Cloudy
6:00 AM 44 °F - 42 °F 91% 30.02 in 28 mi WNW 8.1 mph - -   Partly Cloudy
6:00 AM 44.6 °F 40.7 °F 42.8 °F 93% 30.02 in 30.0 mi WNW 6.9 mph - N/A   Mostly Cloudy
7:00 AM 44.6 °F 40.7 °F 42.8 °F 93% 30.01 in 30.0 mi WSW 6.9 mph - N/A   Mostly Cloudy
8:00 AM 50.0 °F - 44.6 °F 82% 30.01 in 30.0 mi NNW 6.9 mph - N/A   Mostly Cloudy
9:00 AM 51.8 °F - 44.6 °F 76% 30.03 in 30.0 mi NNW 11.5 mph 18.4 mph N/A   Scattered Clouds
10:00 AM 57.2 °F - 44.6 °F 63% 30.01 in 30.0 mi NNW 15.0 mph 20.7 mph N/A   Mostly Cloudy
11:00 AM 59.0 °F - 44.6 °F 59% 30.00 in 30.0 mi NNW 2.3 mph 18.4 mph N/A   Mostly Cloudy
12:00 PM 61 °F - 45 °F 45% 30.00 in 28 mi North 5.8 mph - -   Mostly Cloudy
12:00 PM 60.8 °F - 44.6 °F 55% 29.99 in 30.0 mi NW 3.5 mph - N/A   Mostly Cloudy
1:00 PM 62.6 °F - 42.8 °F 48% 29.97 in 30.0 mi Calm Calm - N/A   Mostly Cloudy
1:12 PM 60.8 °F - 42.8 °F 52% 29.99 in 30.0 mi Variable 2.3 mph - N/A Thunderstorm Thunderstorm
1:21 PM 55.4 °F - 41.0 °F 58% 30.01 in 20.0 mi NNE 19.6 mph 33.4 mph N/A Rain , Thunderstorm Light Thunderstorms and Rain
2:00 PM 57.2 °F - 44.6 °F 63% 30.02 in 20.0 mi North 15.0 mph - N/A Rain , Thunderstorm Light Thunderstorms and Rain
2:34 PM 60.8 °F - 48.2 °F 63% 30.01 in 30.0 mi North 12.7 mph 19.6 mph N/A   Mostly Cloudy
3:00 PM 62.6 °F - 46.4 °F 55% 30.00 in 30.0 mi North 17.3 mph 25.3 mph N/A   Mostly Cloudy
4:00 PM 66.2 °F - 48.2 °F 52% 29.99 in 30.0 mi North 13.8 mph 21.9 mph N/A   Mostly Cloudy
5:00 PM 62.6 °F - 42.8 °F 48% 30.01 in 30.0 mi North 19.6 mph 25.3 mph N/A   Mostly Cloudy
6:00 PM 52 °F - 43 °F 61% 30.06 in 19 mi NNW 18.4 mph - - Rain Light Rain Showers
6:00 PM 51.8 °F - 42.8 °F 71% 30.06 in 20.0 mi North 15.0 mph 36.8 mph N/A Rain Light Rain Showers
6:18 PM 55.4 °F - 48.2 °F 77% 30.05 in 30.0 mi North 6.9 mph - N/A   Mostly Cloudy
7:00 PM 59.0 °F - 46.4 °F 63% 30.05 in 30.0 mi WNW 6.9 mph - N/A   Mostly Cloudy
8:00 PM 59.0 °F - 46.4 °F 63% 30.05 in 30.0 mi Calm Calm - N/A   Mostly Cloudy
9:00 PM 53.6 °F - 44.6 °F 72% 30.07 in 30.0 mi NW 9.2 mph - N/A   Mostly Cloudy
9:05 PM 55.4 °F - 41.0 °F 58% 30.06 in 30.0 mi NNW 27.6 mph 39.1 mph N/A Rain Light Rain Showers
9:47 PM 51.8 °F - 44.6 °F 76% 30.10 in 20.0 mi WNW 11.5 mph - N/A   Mostly Cloudy
9:56 PM 51.8 °F - 44.6 °F 76% 30.11 in 20.0 mi NW 8.1 mph - N/A Rain Light Rain Showers
10:00 PM 51.8 °F - 44.6 °F 76% 30.10 in 20.0 mi WNW 6.9 mph - N/A Rain Light Rain Showers